Time,TemperatureF,DewpointF,PressureIn,WindDirection,WindDirectionDegrees,WindSpeedMPH,WindSpeedGustMPH,Humidity,HourlyPrecipIn,Conditions,Clouds,dailyrainin,SoftwareType,DateUTC
2013-07-15 00:00:00,62.4,41.4,29.84,NE,46,0.0,0.0,46,0.00,,,0.00,meteobridge,2013-07-15 07:00:00,
2013-07-15 00:15:00,63.0,40.1,29.83,NE,46,0.0,0.0,43,0.00,,,0.00,meteobridge,2013-07-15 07:15:00,
2013-07-15 00:30:00,62.4,42.4,29.84,NE,46,0.0,0.0,48,0.00,,,0.00,meteobridge,2013-07-15 07:30:00,
2013-07-15 00:45:00,62.2,41.2,29.84,NE,46,0.0,0.0,46,0.00,,,0.00,meteobridge,2013-07-15 07:45:00,
2013-07-15 01:00:00,61.9,45.5,29.84,NE,46,0.0,0.9,55,0.00,,,0.00,meteobridge,2013-07-15 08:00:00,
2013-07-15 01:15:00,61.0,43.7,29.83,NE,46,0.0,0.0,53,0.00,,,0.00,meteobridge,2013-07-15 08:15:00,
2013-07-15 01:30:00,60.3,45.5,29.84,NE,56,0.0,0.0,58,0.00,,,0.00,meteobridge,2013-07-15 08:30:00,
2013-07-15 01:45:00,60.6,44.8,29.84,ENE,69,0.0,4.9,56,0.00,,,0.00,meteobridge,2013-07-15 08:45:00,
2013-07-15 02:01:00,59.9,46.0,29.84,East,82,0.0,0.0,60,0.00,,,0.00,meteobridge,2013-07-15 09:01:00,
2013-07-15 02:16:00,58.6,45.7,29.84,East,82,0.0,0.0,62,0.00,,,0.00,meteobridge,2013-07-15 09:16:00,
2013-07-15 02:31:00,57.4,46.0,29.84,East,82,0.0,0.0,66,0.00,,,0.00,meteobridge,2013-07-15 09:31:00,
2013-07-15 02:46:00,57.7,43.0,29.83,East,91,0.0,0.0,58,0.00,,,0.00,meteobridge,2013-07-15 09:46:00,
2013-07-15 03:01:00,57.7,45.3,29.83,ENE,63,0.0,0.9,63,0.00,,,0.00,meteobridge,2013-07-15 10:01:00,
2013-07-15 03:16:00,57.9,43.2,29.83,ENE,59,0.0,0.9,58,0.00,,,0.00,meteobridge,2013-07-15 10:16:00,
2013-07-15 03:31:00,57.4,44.1,29.83,ENE,59,0.0,0.0,61,0.00,,,0.00,meteobridge,2013-07-15 10:31:00,
2013-07-15 03:46:00,56.5,45.7,29.83,ENE,59,0.0,0.0,67,0.00,,,0.00,meteobridge,2013-07-15 10:46:00,
2013-07-15 04:01:00,55.6,44.8,29.83,NE,51,0.0,0.0,67,0.00,,,0.00,meteobridge,2013-07-15 11:01:00,
2013-07-15 04:16:00,55.4,44.6,29.83,NE,51,0.0,0.0,67,0.00,,,0.00,meteobridge,2013-07-15 11:16:00,
2013-07-15 04:32:00,54.9,45.7,29.83,NE,52,0.0,0.0,71,0.00,,,0.00,meteobridge,2013-07-15 11:32:00,
2013-07-15 04:47:00,55.4,46.2,29.84,ENE,57,0.0,0.0,71,0.00,,,0.00,meteobridge,2013-07-15 11:47:00,
2013-07-15 05:02:00,55.0,46.2,29.84,NE,34,0.0,0.0,72,0.00,,,0.00,meteobridge,2013-07-15 12:02:00,
2013-07-15 05:18:00,53.4,45.7,29.85,SW,236,0.0,0.0,75,0.00,,,0.00,meteobridge,2013-07-15 12:18:00,
2013-07-15 05:33:00,53.2,46.2,29.85,WSW,238,0.0,0.0,77,0.00,,,0.00,meteobridge,2013-07-15 12:33:00,
2013-07-15 05:48:00,54.7,47.3,29.86,NE,53,0.0,0.0,76,0.00,,,0.00,meteobridge,2013-07-15 12:48:00,
2013-07-15 06:03:00,56.8,47.8,29.86,NE,53,0.0,0.0,72,0.00,,,0.00,meteobridge,2013-07-15 13:03:00,
2013-07-15 06:18:00,57.4,46.6,29.86,NE,53,0.0,0.0,67,0.00,,,0.00,meteobridge,2013-07-15 13:18:00,
2013-07-15 06:33:00,57.7,46.9,29.87,NE,53,0.0,0.0,67,0.00,,,0.00,meteobridge,2013-07-15 13:33:00,
2013-07-15 06:49:00,57.7,46.9,29.87,NE,53,0.0,0.0,67,0.00,,,0.00,meteobridge,2013-07-15 13:49:00,
2013-07-15 07:04:00,57.6,47.5,29.87,NE,53,0.0,0.0,69,0.00,,,0.00,meteobridge,2013-07-15 14:04:00,
2013-07-15 07:19:00,58.3,48.2,29.87,NE,53,0.0,0.0,69,0.00,,,0.00,meteobridge,2013-07-15 14:19:00,
2013-07-15 07:34:00,61.2,49.3,29.87,NE,53,0.0,0.0,65,0.00,,,0.00,meteobridge,2013-07-15 14:34:00,
2013-07-15 07:50:00,64.6,47.1,29.88,WSW,245,0.0,0.9,53,0.00,,,0.00,meteobridge,2013-07-15 14:50:00,
2013-07-15 08:05:00,66.7,47.5,29.88,SW,232,0.0,0.0,50,0.00,,,0.00,meteobridge,2013-07-15 15:05:00,
2013-07-15 08:20:00,68.5,43.9,29.88,SW,233,0.0,0.0,41,0.00,,,0.00,meteobridge,2013-07-15 15:20:00,
2013-07-15 08:35:00,70.9,45.3,29.88,SW,233,0.0,0.0,40,0.00,,,0.00,meteobridge,2013-07-15 15:35:00,
2013-07-15 08:50:00,69.6,43.5,29.88,WSW,247,0.0,2.9,39,0.00,,,0.00,meteobridge,2013-07-15 15:50:00,
2013-07-15 09:06:00,72.0,46.4,29.88,WSW,252,0.0,0.0,40,0.00,,,0.00,meteobridge,2013-07-15 16:06:00,
2013-07-15 09:21:00,72.1,45.9,29.88,NNE,14,0.0,0.0,39,0.00,,,0.00,meteobridge,2013-07-15 16:21:00,
2013-07-15 09:36:00,72.3,45.3,29.88,WSW,247,0.0,0.0,38,0.00,,,0.00,meteobridge,2013-07-15 16:36:00,
2013-07-15 09:51:00,73.0,45.1,29.88,ENE,59,0.0,0.9,37,0.00,,,0.00,meteobridge,2013-07-15 16:51:00,
2013-07-15 10:07:00,74.1,45.5,29.88,SE,124,0.0,0.0,36,0.00,,,0.00,meteobridge,2013-07-15 17:07:00,
2013-07-15 10:22:00,73.4,44.1,29.88,WSW,247,6.9,8.9,35,0.00,,,0.00,meteobridge,2013-07-15 17:22:00,
2013-07-15 10:37:00,73.9,44.6,29.89,WSW,249,0.0,2.0,35,0.00,,,0.00,meteobridge,2013-07-15 17:37:00,
2013-07-15 10:52:00,75.6,43.7,29.89,NNE,31,0.0,0.9,32,0.00,,,0.00,meteobridge,2013-07-15 17:52:00,
2013-07-15 11:07:00,76.3,45.1,29.89,WSW,247,0.0,0.9,33,0.00,,,0.00,meteobridge,2013-07-15 18:07:00,
2013-07-15 11:22:00,77.0,42.3,29.89,NW,322,0.0,0.9,29,0.00,,,0.00,meteobridge,2013-07-15 18:22:00,
2013-07-15 11:37:00,76.8,43.0,29.89,NNE,32,0.0,2.0,30,0.00,,,0.00,meteobridge,2013-07-15 18:37:00,
2013-07-15 11:52:00,77.5,41.0,29.88,NE,53,0.9,2.9,27,0.00,,,0.00,meteobridge,2013-07-15 18:52:00,
2013-07-15 12:07:00,78.1,43.2,29.89,SE,127,0.0,0.0,29,0.00,,,0.00,meteobridge,2013-07-15 19:07:00,
2013-07-15 12:37:00,79.9,43.0,29.88,West,271,0.0,0.9,27,0.00,,,0.00,meteobridge,2013-07-15 19:37:00,
2013-07-15 12:52:00,80.4,40.3,29.88,ENE,72,0.0,2.0,24,0.00,,,0.00,meteobridge,2013-07-15 19:52:00,
2013-07-15 13:07:00,79.9,41.9,29.88,SW,219,0.0,0.9,26,0.00,,,0.00,meteobridge,2013-07-15 20:07:00,
2013-07-15 13:22:00,80.1,40.1,29.87,East,79,0.0,2.9,24,0.00,,,0.00,meteobridge,2013-07-15 20:22:00,
2013-07-15 13:37:00,81.3,42.1,29.87,West,273,0.0,2.0,25,0.00,,,0.00,meteobridge,2013-07-15 20:37:00,
2013-07-15 13:52:00,80.8,39.6,29.86,ESE,104,2.0,4.9,23,0.00,,,0.00,meteobridge,2013-07-15 20:52:00,
2013-07-15 14:07:00,81.9,43.7,29.86,SW,231,4.0,4.0,26,0.00,,,0.00,meteobridge,2013-07-15 21:07:00,
2013-07-15 14:22:00,82.4,38.5,29.86,SW,214,0.0,0.9,21,0.00,,,0.00,meteobridge,2013-07-15 21:22:00,
2013-07-15 14:37:00,82.2,39.6,29.86,ENE,74,2.0,2.0,22,0.00,,,0.00,meteobridge,2013-07-15 21:37:00,
2013-07-15 14:52:00,82.2,34.5,29.86,NNE,13,0.0,0.9,18,0.00,,,0.00,meteobridge,2013-07-15 21:52:00,
2013-07-15 15:07:00,82.2,37.2,29.85,West,274,0.0,2.9,20,0.00,,,0.00,meteobridge,2013-07-15 22:07:00,
2013-07-15 15:23:00,83.1,40.3,29.85,WSW,240,0.0,2.9,22,0.00,,,0.00,meteobridge,2013-07-15 22:23:00,
2013-07-15 15:38:00,82.9,32.2,29.85,NE,53,0.9,2.0,16,0.00,,,0.00,meteobridge,2013-07-15 22:38:00,
2013-07-15 15:53:00,83.1,32.4,29.85,ENE,62,0.9,0.9,16,0.00,,,0.00,meteobridge,2013-07-15 22:53:00,
2013-07-15 16:08:00,81.9,32.7,29.85,North,356,0.0,2.0,17,0.00,,,0.00,meteobridge,2013-07-15 23:08:00,
2013-07-15 16:23:00,82.9,36.5,29.84,SW,233,2.0,2.0,19,0.00,,,0.00,meteobridge,2013-07-15 23:23:00,
2013-07-15 16:38:00,83.3,36.7,29.84,SW,229,2.0,4.0,19,0.00,,,0.00,meteobridge,2013-07-15 23:38:00,
2013-07-15 16:53:00,82.6,37.4,29.84,NNW,340,2.0,4.0,20,0.00,,,0.00,meteobridge,2013-07-15 23:53:00,
2013-07-15 17:08:00,81.3,35.1,29.84,NE,48,2.9,4.9,19,0.00,,,0.00,meteobridge,2013-07-16 00:08:00,
2013-07-15 17:23:00,81.3,36.5,29.83,East,87,0.0,0.9,20,0.00,,,0.00,meteobridge,2013-07-16 00:23:00,
2013-07-15 17:38:00,81.1,35.1,29.83,NNE,23,0.0,0.0,19,0.00,,,0.00,meteobridge,2013-07-16 00:38:00,
2013-07-15 17:53:00,81.0,36.1,29.83,SW,231,0.0,0.9,20,0.00,,,0.00,meteobridge,2013-07-16 00:53:00,
2013-07-15 18:08:00,81.3,35.1,29.83,East,96,0.0,2.0,19,0.00,,,0.00,meteobridge,2013-07-16 01:08:00,
2013-07-15 18:23:00,82.6,34.7,29.83,SSW,212,0.0,2.9,18,0.00,,,0.00,meteobridge,2013-07-16 01:23:00,
2013-07-15 18:38:00,81.0,33.4,29.83,ENE,61,0.0,0.9,18,0.00,,,0.00,meteobridge,2013-07-16 01:38:00,
2013-07-15 18:53:00,79.5,34.9,29.83,NNE,25,0.0,0.0,20,0.00,,,0.00,meteobridge,2013-07-16 01:53:00,
2013-07-15 19:08:00,79.0,28.9,29.83,SE,139,0.9,2.9,16,0.00,,,0.00,meteobridge,2013-07-16 02:08:00,
2013-07-15 19:23:00,78.3,31.3,29.83,ESE,118,0.9,0.9,18,0.00,,,0.00,meteobridge,2013-07-16 02:23:00,
2013-07-15 19:39:00,77.5,33.3,29.83,East,86,0.0,0.0,20,0.00,,,0.00,meteobridge,2013-07-16 02:39:00,
2013-07-15 20:09:00,75.4,35.1,29.83,NE,54,0.0,0.0,23,0.00,,,0.00,meteobridge,2013-07-16 03:09:00,
2013-07-15 20:24:00,73.8,34.7,29.84,ENE,75,0.0,0.0,24,0.00,,,0.00,meteobridge,2013-07-16 03:24:00,
2013-07-15 20:39:00,72.5,33.6,29.84,ESE,118,0.0,0.0,24,0.00,,,0.00,meteobridge,2013-07-16 03:39:00,
2013-07-15 20:54:00,71.8,34.0,29.84,WSW,245,0.0,0.0,25,0.00,,,0.00,meteobridge,2013-07-16 03:54:00,
2013-07-15 21:09:00,70.2,38.8,29.85,SW,219,0.0,0.0,32,0.00,,,0.00,meteobridge,2013-07-16 04:09:00,
2013-07-15 21:24:00,67.3,41.5,29.86,SW,220,0.0,0.0,39,0.00,,,0.00,meteobridge,2013-07-16 04:24:00,
2013-07-15 21:39:00,64.9,40.6,29.86,SW,220,0.0,0.0,41,0.00,,,0.00,meteobridge,2013-07-16 04:39:00,
2013-07-15 21:54:00,63.1,40.3,29.86,SW,220,0.0,0.0,43,0.00,,,0.00,meteobridge,2013-07-16 04:54:00,
2013-07-15 22:09:00,61.9,40.8,29.86,SW,220,0.0,0.0,46,0.00,,,0.00,meteobridge,2013-07-16 05:09:00,
2013-07-15 22:24:00,61.5,39.9,29.87,SW,220,0.0,0.0,45,0.00,,,0.00,meteobridge,2013-07-16 05:24:00,
2013-07-15 22:39:00,60.4,41.2,29.87,SW,220,0.0,0.0,49,0.00,,,0.00,meteobridge,2013-07-16 05:39:00,
2013-07-15 22:54:00,59.7,40.5,29.87,SW,219,0.0,0.0,49,0.00,,,0.00,meteobridge,2013-07-16 05:54:00,
2013-07-15 23:09:00,58.6,39.6,29.87,SW,220,0.0,0.0,49,0.00,,,0.00,meteobridge,2013-07-16 06:09:00,
2013-07-15 23:24:00,58.1,40.6,29.87,SW,219,0.0,0.0,52,0.00,,,0.00,meteobridge,2013-07-16 06:24:00,
2013-07-15 23:39:00,59.4,41.2,29.88,SW,220,0.0,0.0,51,0.00,,,0.00,meteobridge,2013-07-16 06:39:00,
2013-07-15 23:54:00,58.3,41.7,29.88,SW,220,0.0,0.0,54,0.00,,,0.00,meteobridge,2013-07-16 06:54:00,